TimeMDT,TemperatureF,Dew PointF,Humidity,Sea Level PressureIn,VisibilityMPH,Wind Direction,Wind SpeedMPH,Gust SpeedMPH,PrecipitationIn,Events,Conditions,WindDirDegrees,DateUTC
12:15 AM,59.0,28.4,31,29.92,10.0,NNE,5.8,-,N/A,,Clear,20,2013-05-08 06:15:00
12:35 AM,53.6,28.4,38,29.93,10.0,NNW,10.4,-,N/A,,Clear,330,2013-05-08 06:35:00
12:55 AM,51.8,30.2,44,29.94,10.0,NW,8.1,-,N/A,,Clear,320,2013-05-08 06:55:00
1:15 AM,51.8,28.4,41,29.94,10.0,NW,11.5,-,N/A,,Clear,320,2013-05-08 07:15:00
1:35 AM,51.8,30.2,44,29.95,10.0,NNW,13.8,-,N/A,,Clear,330,2013-05-08 07:35:00
1:55 AM,51.8,35.6,54,29.95,10.0,NNW,13.8,-,N/A,,Clear,340,2013-05-08 07:55:00
2:15 AM,51.8,37.4,58,29.95,10.0,NNW,15.0,-,N/A,,Clear,340,2013-05-08 08:15:00
2:55 AM,50.0,39.2,66,29.96,10.0,North,11.5,-,N/A,,Clear,350,2013-05-08 08:55:00
3:15 AM,48.2,37.4,66,29.97,10.0,North,6.9,-,N/A,,Clear,360,2013-05-08 09:15:00
3:35 AM,46.4,37.4,71,29.98,10.0,NNW,8.1,-,N/A,,Clear,340,2013-05-08 09:35:00
3:55 AM,46.4,37.4,71,29.99,10.0,NNW,9.2,-,N/A,,Clear,340,2013-05-08 09:55:00
4:15 AM,46.4,37.4,71,29.99,10.0,North,9.2,-,N/A,,Clear,360,2013-05-08 10:15:00
4:36 AM,44.6,35.6,71,30.00,10.0,North,8.1,-,N/A,,Clear,360,2013-05-08 10:36:00
4:55 AM,42.8,35.6,76,30.00,10.0,NNW,8.1,-,N/A,,Clear,340,2013-05-08 10:55:00
5:15 AM,42.8,35.6,76,30.01,10.0,NNW,10.4,-,N/A,,Clear,340,2013-05-08 11:15:00
5:35 AM,39.2,33.8,81,30.02,10.0,NNW,8.1,-,N/A,,Clear,330,2013-05-08 11:35:00
6:15 AM,42.8,37.4,81,30.04,10.0,NNW,8.1,-,N/A,,Clear,340,2013-05-08 12:15:00
6:35 AM,44.6,37.4,76,30.04,10.0,North,9.2,-,N/A,,Clear,360,2013-05-08 12:35:00
6:55 AM,46.4,39.2,76,30.05,10.0,North,10.4,-,N/A,,Clear,10,2013-05-08 12:55:00
7:15 AM,48.2,37.4,66,30.06,10.0,NNE,12.7,-,N/A,,Clear,20,2013-05-08 13:15:00
7:35 AM,48.2,37.4,66,30.07,10.0,NNE,16.1,-,N/A,,Clear,20,2013-05-08 13:35:00
7:55 AM,50.0,35.6,58,30.08,10.0,NNE,15.0,-,N/A,,Clear,20,2013-05-08 13:55:00
8:15 AM,51.8,37.4,58,30.09,10.0,NNE,17.3,-,N/A,,Clear,20,2013-05-08 14:15:00
8:35 AM,50.0,35.6,58,30.09,10.0,NNE,12.7,-,N/A,,Clear,30,2013-05-08 14:35:00
8:55 AM,51.8,37.4,58,30.09,10.0,NNE,13.8,-,N/A,,Clear,30,2013-05-08 14:55:00
9:15 AM,53.6,37.4,54,30.10,10.0,NE,17.3,-,N/A,,Clear,40,2013-05-08 15:15:00
9:35 AM,55.4,39.2,54,30.10,10.0,NE,15.0,-,N/A,,Clear,40,2013-05-08 15:35:00
9:55 AM,55.4,39.2,54,30.11,10.0,NNE,16.1,19.6,N/A,,Clear,30,2013-05-08 15:55:00
10:35 AM,57.2,39.2,51,30.12,10.0,NE,15.0,-,N/A,,Clear,50,2013-05-08 16:35:00
10:55 AM,57.2,39.2,51,30.13,10.0,NE,15.0,18.4,N/A,,Clear,50,2013-05-08 16:55:00
11:15 AM,59.0,39.2,48,30.12,10.0,NNE,13.8,19.6,N/A,,Clear,30,2013-05-08 17:15:00
11:35 AM,60.8,39.2,45,30.13,10.0,NE,12.7,-,N/A,,Clear,50,2013-05-08 17:35:00
11:55 AM,60.8,39.2,45,30.13,10.0,NE,12.7,17.3,N/A,,Clear,40,2013-05-08 17:55:00
12:55 PM,64.4,39.2,40,30.13,10.0,NE,16.1,-,N/A,,Clear,40,2013-05-08 18:55:00
1:15 PM,64.4,39.2,40,30.13,10.0,ENE,10.4,18.4,N/A,,Clear,60,2013-05-08 19:15:00
1:35 PM,64.4,39.2,40,30.13,10.0,NE,13.8,-,N/A,,Clear,40,2013-05-08 19:35:00
1:55 PM,64.4,39.2,40,30.12,10.0,ENE,13.8,-,N/A,,Clear,60,2013-05-08 19:55:00
2:55 PM,66.2,39.2,37,30.13,10.0,NE,15.0,21.9,N/A,,Clear,40,2013-05-08 20:55:00
3:35 PM,64.4,39.2,40,30.13,10.0,NNE,16.1,-,N/A,,Partly Cloudy,20,2013-05-08 21:35:00
4:15 PM,64.4,37.4,37,30.12,10.0,ENE,17.3,-,N/A,,Clear,60,2013-05-08 22:15:00
4:35 PM,64.4,37.4,37,30.13,10.0,NE,16.1,-,N/A,,Clear,40,2013-05-08 22:35:00
4:55 PM,62.6,37.4,39,30.13,10.0,NNE,15.0,-,N/A,,Clear,30,2013-05-08 22:55:00
5:35 PM,64.4,37.4,37,30.13,10.0,NNE,15.0,19.6,N/A,,Clear,20,2013-05-08 23:35:00
5:55 PM,62.6,37.4,39,30.13,10.0,NNE,15.0,-,N/A,,Clear,30,2013-05-08 23:55:00
6:35 PM,62.6,37.4,39,30.12,10.0,NNE,17.3,-,N/A,,Clear,30,2013-05-09 00:35:00
7:35 PM,60.8,37.4,42,30.13,10.0,NE,13.8,-,N/A,,Clear,40,2013-05-09 01:35:00
7:55 PM,59.0,35.6,42,30.13,10.0,NNE,13.8,-,N/A,,Clear,30,2013-05-09 01:55:00
8:15 PM,57.2,35.6,44,30.14,10.0,NNE,15.0,-,N/A,,Clear,30,2013-05-09 02:15:00
8:35 PM,55.4,35.6,47,30.14,10.0,NE,12.7,-,N/A,,Clear,40,2013-05-09 02:35:00
8:55 PM,55.4,35.6,47,30.15,10.0,NE,12.7,-,N/A,,Clear,40,2013-05-09 02:55:00
9:15 PM,55.4,35.6,47,30.16,10.0,NE,15.0,-,N/A,,Clear,40,2013-05-09 03:15:00
9:35 PM,53.6,33.8,47,30.17,10.0,NE,12.7,-,N/A,,Clear,40,2013-05-09 03:35:00
9:55 PM,51.8,33.8,50,30.17,10.0,NE,13.8,-,N/A,,Clear,50,2013-05-09 03:55:00
10:15 PM,51.8,33.8,50,30.18,10.0,NE,12.7,-,N/A,,Clear,50,2013-05-09 04:15:00
10:35 PM,50.0,33.8,54,30.18,10.0,NE,10.4,-,N/A,,Clear,50,2013-05-09 04:35:00
10:55 PM,48.2,33.8,58,30.19,10.0,NE,9.2,-,N/A,,Clear,50,2013-05-09 04:55:00
11:35 PM,46.4,33.8,62,30.19,10.0,NE,9.2,-,N/A,,Clear,50,2013-05-09 05:35:00